ICESAT-2 (43613 NORAD) Tracking and Keplerian Element Data

This shows tracking and keplerian element data for the satellite.

Feedback or suggestion? Click here.




ElementValue
Catalog43613
NameICESAT-2
Epoch Orbit35634
Epoch Day34.7952787
Epoch Year2025
RAAN156.9237
Inclination91.9989
Eccentricity0.0002017
Argument of Perigee318.1533
Mean Anonmoly41.9562
Mean Motion15.28073538
Decay Rate0.0001478
L11 43613U 18070A 25034.79527870 .00014780 00000+0 53978-3 0 9996
L22 43613 91.9989 156.9237 0002017 318.1533 41.9562 15.28073538356341



Live tracking and technical data element details for ICESAT-2 (NORAD 43613). ICESAT-2 can be tracked NOW for your location showing map with azimuth and elevation plus other details from your city location.







IsCatalogInMostPopularTable: catalog: 43613, numindb: 525
Update: records affected: 1



GetName: 43613 ICESAT-2

Hit Count: updated at: Fri, 16 May 2025 11:51:56 GMT